N8FIS Weather Reports


time (UTC)temp
F
wind
direction
speed
knots
gust
knots
rain 1hr
in
rain 24hr
in
rain mn
in
humidity
%
barometer
mb
20260504120110 51 197 1.7 9.6 0.00 0.00 0.00 74 1006.3
20260504110609 50 202 1.7 7.0 0.00 0.00 0.00 75 1005.9
20260504100605 50 196 1.7 6.1 0.00 0.00 0.00 74 1005.8
20260504090111 50 174 0.9 4.3 0.00 0.00 0.00 73 1006.2
20260504081538 51 180 1.7 11.3 0.00 0.00 0.00 71 1006.6
20260504081048 51 180 2.6 11.3 0.00 0.00 0.00 71 1006.7
20260504080553 51 179 3.5 8.7 0.00 0.00 0.00 71 1006.6
20260504050542 52 195 2.6 6.1 0.00 0.00 0.00 68 1008.9
20260504045556 52 153 2.6 8.7 0.00 0.00 0.00 68 1009.0
20260504045041 52 174 1.7 7.8 0.00 0.00 0.00 68 1009.0
20260504044548 52 195 3.5 9.6 0.00 0.00 0.00 68 1009.0
20260504044054 52 184 3.5 9.6 0.00 0.00 0.00 68 1009.1
20260504043552 52 153 3.5 7.8 0.00 0.00 0.00 69 1009.2
20260504043036 52 185 1.7 8.7 0.00 0.00 0.00 69 1009.3
20260504042546 51 185 3.5 8.7 0.00 0.00 0.00 69 1009.2
20260504042101 51 179 3.5 7.8 0.00 0.00 0.00 69 1009.2
20260504041542 51 191 2.6 7.8 0.00 0.00 0.00 70 1009.2
20260504041042 51 193 2.6 8.7 0.00 0.00 0.00 70 1009.3
20260504040547 51 173 1.7 8.7 0.00 0.00 0.00 70 1009.4
20260504040053 51 167 2.6 8.7 0.00 0.00 0.00 70 1009.4
20260504035551 51 180 4.3 8.7 0.00 0.00 0.00 70 1009.5
20260504035037 51 198 1.7 6.1 0.00 0.00 0.00 71 1009.6
20260504034545 51 192 1.7 5.2 0.00 0.00 0.00 71 1009.6
20260504034048 51 175 0.9 8.7 0.00 0.00 0.00 71 1009.6
20260504033552 51 182 3.5 8.7 0.00 0.00 0.00 71 1009.7
20260504033038 51 167 5.2 7.8 0.00 0.00 0.00 72 1009.7
20260504032541 51 193 1.7 6.1 0.00 0.00 0.00 72 1009.7
20260504032112 50 191 3.5 5.2 0.00 0.00 0.00 73 1009.8
20260504031555 50 178 2.6 6.1 0.00 0.00 0.00 74 1009.8
20260504031039 50 172 2.6 6.1 0.00 0.00 0.00 74 1009.9
20260504030543 50 165 3.5 6.1 0.00 0.00 0.00 75 1010.0
20260504025602 50 167 2.6 5.2 0.00 0.00 0.00 74 1010.0
20260504025041 50 184 1.7 5.2 0.00 0.00 0.00 74 1010.2
20260504024547 50 157 1.7 5.2 0.00 0.00 0.00 74 1010.3
20260504024051 50 178 3.5 6.1 0.00 0.00 0.00 74 1010.3
20260504023537 50 132 1.7 4.3 0.00 0.00 0.00 74 1010.4
20260504023056 50 183 1.7 6.1 0.00 0.00 0.00 73 1010.4
20260504022540 51 180 2.6 6.1 0.00 0.00 0.00 73 1010.4
20260504022046 51 181 2.6 5.2 0.00 0.00 0.00 72 1010.5
20260504021550 51 179 1.7 5.2 0.00 0.00 0.00 72 1010.4
20260504021054 51 194 2.6 5.2 0.00 0.00 0.00 72 1010.4
20260504020601 51 186 2.6 5.2 0.00 0.00 0.00 71 1010.4
20260504020043 51 195 2.6 6.1 0.00 0.00 0.00 71 1010.5
20260504015547 51 175 2.6 6.1 0.00 0.00 0.00 71 1010.5
20260504015053 51 173 2.6 4.3 0.00 0.00 0.00 70 1010.5
20260504014537 51 178 2.6 5.2 0.00 0.00 0.00 70 1010.4
20260504014042 52 190 2.6 5.2 0.00 0.00 0.00 70 1010.4
20260504013544 52 172 1.7 5.2 0.00 0.00 0.00 70 1010.4
20260504013050 52 187 2.6 5.2 0.00 0.00 0.00 69 1010.4
20260504012554 52 186 1.7 5.2 0.00 0.00 0.00 69 1010.4
20260504012039 52 196 1.7 5.2 0.00 0.00 0.00 68 1010.4
20260504011544 52 146 2.6 4.3 0.00 0.00 0.00 68 1010.5
20260504011051 52 177 0.9 5.2 0.00 0.00 0.00 68 1010.4
20260504010605 52 194 2.6 5.2 0.00 0.00 0.00 68 1010.5
20260504010117 52 187 1.7 3.5 0.00 0.00 0.00 67 1010.5
20260504005542 52 189 1.7 5.2 0.00 0.00 0.00 67 1010.6
20260504005104 53 192 0.9 5.2 0.00 0.00 0.00 67 1010.6
20260504004616 53 261 1.7 4.3 0.00 0.00 0.00 67 1010.5
20260504004041 53 336 2.6 6.1 0.00 0.00 0.00 66 1010.5
20260504003550 53 169 2.6 6.1 0.00 0.00 0.00 67 1010.5
20260504003053 53 288 0.9 5.2 0.00 0.00 0.00 67 1010.5
20260504002538 53 196 0.9 4.3 0.00 0.00 0.00 66 1010.6
20260504002044 53 170 0.9 7.8 0.00 0.00 0.00 66 1010.7
20260504001551 53 193 3.5 10.4 0.00 0.00 0.00 65 1010.8
20260504001056 53 198 0.9 12.2 0.00 0.00 0.00 64 1010.8
20260504000540 53 109 3.5 13.0 0.00 0.00 0.00 64 1010.7
20260504000048 54 161 4.3 13.0 0.00 0.00 0.00 64 1010.8
20260503235552 54 221 2.6 11.3 0.00 0.00 0.00 65 1010.8
20260503235037 54 222 1.7 4.3 0.00 0.00 0.00 64 1010.8
20260503234543 55 330 1.7 7.8 0.00 0.00 0.00 64 1010.8
20260503234116 55 298 1.7 7.8 0.00 0.00 0.00 64 1010.7
20260503233538 55 273 1.7 8.7 0.00 0.00 0.00 64 1010.7
20260503233100 56 350 2.6 8.7 0.00 0.00 0.00 62 1010.7
20260503232545 57 153 1.7 7.0 0.00 0.00 0.00 60 1010.7
20260503232050 57 281 2.6 7.0 0.00 0.00 0.00 61 1010.6
20260503231555 58 300 2.6 12.2 0.00 0.00 0.00 60 1010.5
20260503231041 58 327 4.3 12.2 0.00 0.00 0.00 58 1010.5
20260503230548 59 290 1.7 7.8 0.00 0.00 0.00 56 1010.4
20260503230052 59 317 2.6 7.8 0.00 0.00 0.00 48 1010.4
20260503225537 60 235 2.6 7.8 0.00 0.00 0.00 43 1010.3
20260503225042 60 177 2.6 8.7 0.00 0.00 0.00 44 1010.3
20260503224548 60 196 2.6 8.7 0.00 0.00 0.00 44 1010.3
20260503224054 60 26 2.6 10.4 0.00 0.00 0.00 42 1010.3
20260503223539 60 267 3.5 10.4 0.00 0.00 0.00 42 1010.4
20260503223046 61 261 3.5 7.8 0.00 0.00 0.00 42 1010.4
20260503222550 62 311 3.5 8.7 0.00 0.00 0.00 42 1010.4
20260503222037 62 272 2.6 8.7 0.00 0.00 0.00 42 1010.3
20260503221542 61 156 3.5 8.7 0.00 0.00 0.00 43 1010.4
20260503221043 61 300 1.7 8.7 0.00 0.00 0.00 43 1010.4
20260503220551 61 223 1.7 8.7 0.00 0.00 0.00 43 1010.3
20260503220056 61 166 2.6 8.7 0.00 0.00 0.00 42 1010.3
20260503215539 61 174 3.5 8.7 0.00 0.00 0.00 43 1010.4
20260503215045 61 279 1.7 10.4 0.00 0.00 0.00 42 1010.4
20260503214551 61 141 2.6 10.4 0.00 0.00 0.00 43 1010.5
20260503214036 61 339 0.9 8.7 0.00 0.00 0.00 43 1010.5
20260503213607 61 198 3.5 11.3 0.00 0.00 0.00 42 1010.6
20260503213053 61 182 3.5 11.3 0.00 0.00 0.00 42 1010.4
20260503212605 61 209 3.5 11.3 0.00 0.00 0.00 41 1010.6
20260503212049 61 269 2.6 12.2 0.00 0.00 0.00 42 1010.7
20260503211555 61 334 1.7 12.2 0.00 0.00 0.00 41 1010.6
20260503211100 62 180 4.3 15.6 0.00 0.00 0.00 42 1010.6
20260503210540 62 306 2.6 15.6 0.00 0.00 0.00 42 1010.7
20260503210048 62 272 2.6 8.7 0.00 0.00 0.00 42 1010.8
20260503205536 62 250 4.3 12.2 0.00 0.00 0.00 40 1010.7
20260503205043 63 298 2.6 12.2 0.00 0.00 0.00 40 1010.8
20260503204549 62 305 1.7 9.6 0.00 0.00 0.00 41 1011.0
20260503204052 62 251 2.6 14.8 0.00 0.00 0.00 40 1010.9
20260503203539 63 328 3.5 14.8 0.00 0.00 0.00 39 1010.9
20260503203049 63 169 3.5 10.4 0.00 0.00 0.00 42 1010.9
20260503202554 63 182 5.2 11.3 0.00 0.00 0.00 41 1010.7
20260503202040 64 269 3.5 10.4 0.00 0.00 0.00 41 1010.9
20260503201549 64 181 4.3 10.4 0.00 0.00 0.00 39 1010.8
20260503201055 64 275 3.5 10.4 0.00 0.00 0.00 39 1010.9
20260503200601 63 268 1.7 12.2 0.00 0.00 0.00 44 1011.0
20260503200046 63 211 2.6 12.2 0.00 0.00 0.00 40 1011.1
20260503195554 63 279 1.7 12.2 0.00 0.00 0.00 42 1011.2
20260503195040 63 340 4.3 12.2 0.00 0.00 0.00 41 1011.2
20260503194602 64 240 3.5 7.8 0.00 0.00 0.00 40 1011.3
20260503194111 64 263 1.7 7.8 0.00 0.00 0.00 40 1011.4
20260503193536 63 297 1.7 7.8 0.00 0.00 0.00 41 1011.5
20260503193040 63 227 2.6 9.6 0.00 0.00 0.00 40 1011.6
20260503192549 63 280 1.7 15.6 0.00 0.00 0.00 41 1011.6
20260503192053 63 220 3.5 15.6 0.00 0.00 0.00 41 1011.6
20260503191538 64 198 2.6 10.4 0.00 0.00 0.00 41 1011.8
20260503191045 63 269 3.5 11.3 0.00 0.00 0.00 41 1011.9
20260503190551 63 171 3.5 11.3 0.00 0.00 0.00 39 1011.9
20260503190057 63 350 2.6 10.4 0.00 0.00 0.00 40 1012.0
20260503185545 62 271 2.6 10.4 0.00 0.00 0.00 40 1012.0
20260503185051 63 251 5.2 9.6 0.00 0.00 0.00 38 1012.2
20260503184537 63 207 0.9 13.9 0.00 0.00 0.00 41 1012.1
20260503184042 63 257 1.7 13.9 0.00 0.00 0.00 40 1012.0
20260503183548 63 240 3.5 7.8 0.00 0.00 0.00 40 1012.2
20260503183050 63 290 2.6 7.8 0.00 0.00 0.00 39 1012.3
20260503182537 63 136 2.6 8.7 0.00 0.00 0.00 39 1012.3
20260503182105 63 169 2.6 11.3 0.00 0.00 0.00 42 1012.3
20260503181551 63 165 4.3 12.2 0.00 0.00 0.00 39 1012.5
20260503181057 63 34 3.5 12.2 0.00 0.00 0.00 40 1012.5
20260503180606 63 236 1.7 7.8 0.00 0.00 0.00 42 1012.6
20260503180049 63 5 2.6 10.4 0.00 0.00 0.00 41 1012.6
20260503175555 63 207 2.6 10.4 0.00 0.00 0.00 41 1012.7
20260503175104 63 322 2.6 7.8 0.00 0.00 0.00 42 1012.8
20260503174548 63 229 2.6 7.8 0.00 0.00 0.00 42 1012.9
20260503174039 62 64 2.6 8.7 0.00 0.00 0.00 39 1012.9
20260503173601 62 188 3.5 10.4 0.00 0.00 0.00 42 1012.9
20260503173045 61 276 1.7 10.4 0.00 0.00 0.00 43 1013.0
20260503172552 62 277 3.5 8.7 0.00 0.00 0.00 41 1013.1
20260503172037 62 178 2.6 9.6 0.00 0.00 0.00 40 1013.1
20260503171603 62 257 3.5 12.2 0.00 0.00 0.00 43 1013.1
20260503171049 62 107 2.6 12.2 0.00 0.00 0.00 43 1013.3
20260503170554 62 91 1.7 7.8 0.00 0.00 0.00 47 1013.3
20260503150551 56 333 0.9 6.1 0.00 0.00 0.00 54 1014.4
20260503140111 52 142 1.7 6.1 0.00 0.00 0.00 56 1014.8
20260503131107 48 271 0.9 5.2 0.00 0.00 0.00 66 1014.9
20260503130553 47 187 1.7 5.2 0.00 0.00 0.00 65 1014.9